TimeCDT,TemperatureF,Dew PointF,Humidity,Sea Level PressureIn,VisibilityMPH,Wind Direction,Wind SpeedMPH,Gust SpeedMPH,PrecipitationIn,Events,Conditions,WindDirDegrees,DateUTC
12:15 AM,30.2,28.4,93,29.77,1.2,North,19.6,25.3,N/A,Snow,Light Snow,350,2013-03-11 05:15:00
12:35 AM,28.4,28.4,100,29.77,1.2,North,18.4,26.5,N/A,Snow,Light Snow,350,2013-03-11 05:35:00
12:55 AM,28.4,26.6,93,29.77,2.0,NNW,17.3,23.0,N/A,Snow,Light Snow,340,2013-03-11 05:55:00
1:15 AM,28.4,26.6,93,29.77,1.5,North,18.4,-,N/A,Snow,Light Snow,350,2013-03-11 06:15:00
1:35 AM,28.4,26.6,93,29.76,2.0,North,17.3,-,N/A,Snow,Light Snow,350,2013-03-11 06:35:00
1:55 AM,28.4,26.6,93,29.76,2.0,North,19.6,25.3,N/A,Snow,Light Snow,350,2013-03-11 06:55:00
2:15 AM,28.4,26.6,93,29.76,3.0,NNW,18.4,24.2,N/A,Snow,Light Snow,340,2013-03-11 07:15:00
2:35 AM,28.4,26.6,93,29.76,3.0,NNW,19.6,-,N/A,Snow,Light Snow,340,2013-03-11 07:35:00
2:55 AM,28.4,26.6,93,29.75,5.0,NNW,19.6,24.2,N/A,Snow,Light Snow,340,2013-03-11 07:55:00
3:15 AM,28.4,26.6,93,29.75,5.0,NNW,19.6,25.3,N/A,Snow,Light Snow,340,2013-03-11 08:15:00
3:35 AM,28.4,26.6,93,29.74,4.0,NNW,19.6,26.5,N/A,Snow,Light Snow,340,2013-03-11 08:35:00
3:55 AM,26.6,24.8,93,29.74,3.0,NNW,17.3,24.2,N/A,Snow,Light Snow,340,2013-03-11 08:55:00
4:15 AM,26.6,24.8,93,29.73,2.0,NNW,18.4,25.3,N/A,Snow,Light Snow,340,2013-03-11 09:15:00
4:35 AM,26.6,24.8,93,29.73,7.0,NNW,17.3,21.9,N/A,,Overcast,340,2013-03-11 09:35:00
4:55 AM,26.6,24.8,93,29.73,2.0,NNW,18.4,24.2,N/A,Snow,Light Snow,340,2013-03-11 09:55:00
5:15 AM,26.6,24.8,93,29.73,3.0,NNW,20.7,25.3,N/A,Snow,Light Snow,340,2013-03-11 10:15:00
5:35 AM,26.6,23.0,86,29.73,7.0,NNW,18.4,24.2,N/A,,Overcast,340,2013-03-11 10:35:00
5:55 AM,26.6,23.0,86,29.73,10.0,NNW,18.4,23.0,N/A,,Overcast,340,2013-03-11 10:55:00
6:15 AM,26.6,23.0,86,29.74,10.0,NNW,17.3,24.2,N/A,,Overcast,340,2013-03-11 11:15:00
6:35 AM,26.6,23.0,86,29.74,10.0,NNW,19.6,24.2,N/A,,Overcast,340,2013-03-11 11:35:00
6:55 AM,26.6,23.0,86,29.74,10.0,NNW,18.4,-,N/A,,Overcast,340,2013-03-11 11:55:00
7:15 AM,26.6,23.0,86,29.74,10.0,NNW,19.6,23.0,N/A,,Overcast,330,2013-03-11 12:15:00
7:35 AM,26.6,23.0,86,29.75,10.0,NNW,18.4,25.3,N/A,,Overcast,330,2013-03-11 12:35:00
7:55 AM,26.6,23.0,86,29.75,10.0,NNW,17.3,25.3,N/A,,Overcast,330,2013-03-11 12:55:00
8:15 AM,26.6,23.0,86,29.75,10.0,NNW,17.3,21.9,N/A,,Overcast,330,2013-03-11 13:15:00
8:35 AM,26.6,23.0,86,29.76,10.0,NNW,13.8,18.4,N/A,,Overcast,330,2013-03-11 13:35:00
8:55 AM,24.8,23.0,93,29.76,10.0,NW,15.0,-,N/A,,Overcast,320,2013-03-11 13:55:00
9:15 AM,24.8,21.2,86,29.76,10.0,NW,15.0,-,N/A,,Overcast,320,2013-03-11 14:15:00
9:35 AM,24.8,21.2,86,29.77,10.0,NNW,19.6,24.2,N/A,,Overcast,330,2013-03-11 14:35:00
9:55 AM,24.8,21.2,86,29.77,10.0,NW,17.3,-,N/A,,Overcast,320,2013-03-11 14:55:00
10:15 AM,24.8,21.2,86,29.77,10.0,NNW,13.8,20.7,N/A,,Overcast,330,2013-03-11 15:15:00
10:35 AM,24.8,21.2,86,29.76,7.0,NNW,17.3,24.2,N/A,,Overcast,330,2013-03-11 15:35:00
10:55 AM,26.6,21.2,80,29.76,10.0,NNW,18.4,25.3,N/A,,Overcast,330,2013-03-11 15:55:00
11:15 AM,26.6,21.2,80,29.75,10.0,NW,21.9,-,N/A,,Overcast,320,2013-03-11 16:15:00
11:35 AM,26.6,21.2,80,29.74,7.0,NW,19.6,27.6,N/A,,Overcast,320,2013-03-11 16:35:00
11:55 AM,26.6,21.2,80,29.74,10.0,NNW,19.6,24.2,N/A,,Overcast,330,2013-03-11 16:55:00
12:15 PM,26.6,21.2,80,29.74,5.0,NNW,21.9,27.6,N/A,,Overcast,330,2013-03-11 17:15:00
12:35 PM,26.6,21.2,80,29.74,10.0,NW,19.6,23.0,N/A,,Overcast,320,2013-03-11 17:35:00
12:55 PM,26.6,21.2,80,29.74,7.0,NW,21.9,27.6,N/A,,Overcast,320,2013-03-11 17:55:00
1:15 PM,26.6,21.2,80,29.74,5.0,NNW,23.0,27.6,N/A,,Overcast,330,2013-03-11 18:15:00
1:35 PM,26.6,21.2,80,29.74,7.0,NW,20.7,26.5,N/A,,Overcast,320,2013-03-11 18:35:00
1:55 PM,26.6,21.2,80,29.74,5.0,NW,20.7,26.5,N/A,,Haze,320,2013-03-11 18:55:00
2:15 PM,26.6,21.2,80,29.74,5.0,NW,15.0,-,N/A,,Haze,320,2013-03-11 19:15:00
2:35 PM,26.6,21.2,80,29.74,10.0,NW,17.3,23.0,N/A,,Overcast,310,2013-03-11 19:35:00
2:55 PM,26.6,21.2,80,29.74,10.0,NW,17.3,23.0,N/A,,Overcast,320,2013-03-11 19:55:00
3:15 PM,26.6,21.2,80,29.75,10.0,NW,16.1,21.9,N/A,,Mostly Cloudy,310,2013-03-11 20:15:00
3:35 PM,26.6,21.2,80,29.75,10.0,NW,16.1,20.7,N/A,,Scattered Clouds,310,2013-03-11 20:35:00
3:55 PM,26.6,19.4,74,29.75,10.0,NW,15.0,23.0,N/A,,Scattered Clouds,320,2013-03-11 20:55:00
4:15 PM,26.6,19.4,74,29.76,10.0,NW,17.3,-,N/A,,Scattered Clouds,310,2013-03-11 21:15:00
4:35 PM,26.6,19.4,74,29.77,10.0,NW,12.7,-,N/A,,Overcast,310,2013-03-11 21:35:00
4:55 PM,26.6,19.4,74,29.78,10.0,NW,15.0,20.7,N/A,,Overcast,310,2013-03-11 21:55:00
5:15 PM,26.6,19.4,74,29.78,10.0,WNW,16.1,21.9,N/A,,Overcast,300,2013-03-11 22:15:00
5:35 PM,26.6,19.4,74,29.79,10.0,WNW,11.5,-,N/A,,Mostly Cloudy,300,2013-03-11 22:35:00
6:15 PM,26.6,19.4,74,29.79,10.0,WNW,13.8,-,N/A,,Mostly Cloudy,300,2013-03-11 23:15:00
6:35 PM,26.6,19.4,74,29.79,10.0,WNW,17.3,-,N/A,,Scattered Clouds,300,2013-03-11 23:35:00
6:55 PM,24.8,17.6,74,29.80,10.0,WNW,13.8,20.7,N/A,,Scattered Clouds,300,2013-03-11 23:55:00
7:15 PM,24.8,17.6,74,29.79,10.0,NW,11.5,16.1,N/A,,Scattered Clouds,310,2013-03-12 00:15:00
7:35 PM,23.0,17.6,80,29.80,10.0,NW,11.5,-,N/A,,Mostly Cloudy,310,2013-03-12 00:35:00
7:55 PM,23.0,15.8,74,29.82,10.0,NW,13.8,17.3,N/A,,Mostly Cloudy,310,2013-03-12 00:55:00
8:15 PM,23.0,15.8,74,29.83,10.0,NW,11.5,-,N/A,,Mostly Cloudy,310,2013-03-12 01:15:00
8:35 PM,23.0,17.6,80,29.84,10.0,WNW,9.2,-,N/A,,Overcast,290,2013-03-12 01:35:00
8:55 PM,23.0,17.6,80,29.85,10.0,WNW,9.2,-,N/A,,Mostly Cloudy,290,2013-03-12 01:55:00
9:15 PM,23.0,17.6,80,29.85,10.0,WNW,10.4,-,N/A,,Scattered Clouds,290,2013-03-12 02:15:00
9:35 PM,23.0,17.6,80,29.85,10.0,WNW,10.4,-,N/A,,Mostly Cloudy,290,2013-03-12 02:35:00
9:55 PM,23.0,17.6,80,29.85,10.0,WNW,8.1,-,N/A,,Mostly Cloudy,290,2013-03-12 02:55:00
10:15 PM,23.0,19.4,86,29.86,10.0,WNW,9.2,-,N/A,,Overcast,290,2013-03-12 03:15:00
10:35 PM,24.8,19.4,80,29.86,10.0,WNW,9.2,-,N/A,,Overcast,290,2013-03-12 03:35:00
10:55 PM,24.8,19.4,80,29.87,10.0,WNW,8.1,-,N/A,,Overcast,290,2013-03-12 03:55:00
11:15 PM,24.8,19.4,80,29.86,10.0,WNW,8.1,-,N/A,,Overcast,290,2013-03-12 04:15:00
11:35 PM,26.6,19.4,74,29.86,10.0,WNW,8.1,-,N/A,,Overcast,290,2013-03-12 04:35:00
11:55 PM,26.6,19.4,74,29.87,10.0,WNW,8.1,-,N/A,,Overcast,290,2013-03-12 04:55:00